Tracking 22836 objects as of 18-Apr-2021
HD Live streaming from Space Station
objects crossing your sky now

DELTA 1 DEB

Track DELTA 1 DEB now!
10-day predictions


NORAD ID: 7133
Int'l Code: 1973-086CX
Perigee: 1,478.3 km
Apogee: 1,539.4 km
Inclination: 101.8 °
Period: 116.0 minutes
Semi major axis: 7879 km
RCS: 0.0439 m2 (small)
Launch date: November 6, 1973
Source: United States (US)
Launch site: AIR FORCE WESTERN TEST RANGE (AFWTR)

Note: This is SATELLITE DEBRIS
aabbcc
Your satellite tracking list
Your tracking list is empty




NASA's NSSDC Master Catalog

Two Line Element Set (TLE):
1 07133U 73086CX  21107.73014481 -.00000133  00000-0 -65820-3 0  9990
2 07133 101.8269 176.1971 0038804 274.1825 204.0793 12.41152092146280
Source of the keplerian elements: AFSPC